When you browse on this site, cookies collect data to enhance your experience and personalize the content and advertising you see.
Visit our Privacy Policy to learn more. By continuing to use the site, you agree to this use of cookies and data.
  • In Hungary
  • List of Countries
  • For 7 days
  • Water Temperature
  • Weather Map
  • News
  • Weather Widgets
  • user-avatar
    Login

    Hourly Weather Tananger

    Today, 25 August, Sunday

    Time Temperature Precipitation Wind Pressure Humidity
    00:00 +17°C° 0 mm 4 mps 767 mmHg 81%
    01:00 +17°C° 0 mm 4 mps 767 mmHg 83%
    02:00 +17°C° 0 mm 4 mps 767 mmHg 85%
    03:00 +17°C° 0 mm 4 mps 766 mmHg 86%
    04:00 +17°C° 0 mm 4 mps 766 mmHg 86%
    05:00 +18°C° 0 mm 4 mps 766 mmHg 85%
    06:00 +18°C° 0 mm 4 mps 766 mmHg 84%
    07:00 +20°C° 0 mm 4 mps 766 mmHg 77%
    08:00 +21°C° 0 mm 4 mps 766 mmHg 69%
    09:00 +23°C° 0 mm 4 mps 766 mmHg 61%
    10:00 +25°C° 0 mm 5 mps 766 mmHg 59%
    11:00 +25°C° 0 mm 5 mps 766 mmHg 56%
    12:00 +26°C° 0 mm 5 mps 766 mmHg 53%
    13:00 +25°C° 0 mm 5 mps 766 mmHg 53%
    14:00 +25°C° 0 mm 5 mps 766 mmHg 54%
    15:00 +25°C° 0 mm 5 mps 766 mmHg 54%
    16:00 +23°C° 0 mm 4 mps 766 mmHg 61%
    17:00 +22°C° 0 mm 4 mps 766 mmHg 68%
    18:00 +20°C° 0 mm 4 mps 766 mmHg 75%
    19:00 +19°C° 0 mm 4 mps 766 mmHg 78%
    20:00 +18°C° 0 mm 3 mps 766 mmHg 80%
    21:00 +17°C° 0 mm 3 mps 766 mmHg 82%
    22:00 +17°C° 0 mm 3 mps 766 mmHg 82%
    23:00 +17°C° 0 mm 3 mps 766 mmHg 81%

    Tomorrow, 26 August, Monday

    Time Temperature Precipitation Wind Pressure Humidity
    00:00 +17°C° 0 mm 3 mps 766 mmHg 80%
    01:00 +17°C° 0 mm 3 mps 766 mmHg 80%
    02:00 +17°C° 0 mm 3 mps 766 mmHg 79%
    03:00 +17°C° 0 mm 3 mps 765 mmHg 79%
    04:00 +17°C° 0 mm 3 mps 765 mmHg 78%
    05:00 +18°C° 0 mm 3 mps 765 mmHg 77%
    06:00 +19°C° 0 mm 3 mps 765 mmHg 76%
    07:00 +20°C° 0 mm 3 mps 765 mmHg 71%
    08:00 +22°C° 0 mm 4 mps 765 mmHg 66%
    09:00 +25°C° 0 mm 4 mps 765 mmHg 60%
    10:00 +25°C° 0 mm 4 mps 765 mmHg 58%
    11:00 +26°C° 0 mm 4 mps 765 mmHg 56%
    12:00 +26°C° 0 mm 5 mps 765 mmHg 54%
    13:00 +26°C° 0 mm 5 mps 765 mmHg 55%
    14:00 +26°C° 0 mm 4 mps 765 mmHg 55%
    15:00 +26°C° 0 mm 4 mps 764 mmHg 56%
    16:00 +25°C° 0 mm 4 mps 764 mmHg 63%
    17:00 +23°C° 0 mm 4 mps 764 mmHg 70%
    18:00 +21°C° 0 mm 3 mps 764 mmHg 77%
    19:00 +21°C° 0 mm 3 mps 764 mmHg 78%
    20:00 +20°C° 0 mm 3 mps 764 mmHg 80%
    21:00 +19°C° 0 mm 3 mps 764 mmHg 82%
    22:00 +19°C° 0 mm 3 mps 764 mmHg 80%
    23:00 +19°C° 0 mm 3 mps 764 mmHg 79%

    Day after tomorrow, 27 August, Tuesday

    Time Temperature Precipitation Wind Pressure Humidity
    00:00 +20°C° 0 mm 3 mps 764 mmHg 78%
    01:00 +20°C° 0 mm 3 mps 764 mmHg 80%
    02:00 +19°C° 0 mm 4 mps 764 mmHg 82%
    03:00 +19°C° 0 mm 4 mps 764 mmHg 85%
    04:00 +20°C° 0 mm 4 mps 764 mmHg 84%
    05:00 +20°C° 0 mm 4 mps 764 mmHg 82%
    06:00 +21°C° 0 mm 4 mps 764 mmHg 81%
    07:00 +22°C° 0 mm 5 mps 764 mmHg 75%
    08:00 +23°C° 0 mm 5 mps 764 mmHg 69%
    09:00 +26°C° 0 mm 5 mps 764 mmHg 62%
    10:00 +26°C° 0 mm 5 mps 764 mmHg 61%
    11:00 +26°C° 0 mm 5 mps 764 mmHg 59%
    12:00 +27°C° 0 mm 6 mps 763 mmHg 57%
    13:00 +27°C° 0 mm 6 mps 763 mmHg 58%
    14:00 +27°C° 0 mm 6 mps 763 mmHg 58%
    15:00 +27°C° 0 mm 6 mps 762 mmHg 59%
    16:00 +24°C° 0.5 mm 6 mps 762 mmHg 66%
    17:00 +23°C° 0.5 mm 6 mps 762 mmHg 73%
    18:00 +21°C° 0.5 mm 6 mps 762 mmHg 80%
    19:00 +21°C° 1.2 mm 6 mps 762 mmHg 83%
    20:00 +20°C° 1.2 mm 6 mps 762 mmHg 85%
    21:00 +20°C° 1.2 mm 7 mps 762 mmHg 87%
    22:00 +20°C° 0 mm 6 mps 762 mmHg 88%
    23:00 +19°C° 0 mm 6 mps 762 mmHg 88%

    28 August, Wednesday

    Time Temperature Precipitation Wind Pressure Humidity
    00:00 +19°C° 0 mm 5 mps 762 mmHg 89%
    01:00 +19°C° 0 mm 5 mps 762 mmHg 90%
    02:00 +19°C° 0 mm 4 mps 762 mmHg 92%
    03:00 +18°C° 0 mm 4 mps 762 mmHg 93%
    04:00 +18°C° 0 mm 4 mps 762 mmHg 92%
    05:00 +19°C° 0 mm 3 mps 762 mmHg 91%
    06:00 +19°C° 0 mm 3 mps 762 mmHg 90%
    07:00 +21°C° 0 mm 3 mps 762 mmHg 83%
    08:00 +23°C° 0 mm 2 mps 762 mmHg 76%
    09:00 +25°C° 0 mm 2 mps 762 mmHg 68%
    10:00 +25°C° 0 mm 3 mps 761 mmHg 65%
    11:00 +26°C° 0 mm 3 mps 761 mmHg 61%
    12:00 +27°C° 0 mm 3 mps 761 mmHg 58%
    13:00 +27°C° 0 mm 3 mps 761 mmHg 60%
    14:00 +27°C° 0 mm 3 mps 760 mmHg 63%
    15:00 +27°C° 0 mm 3 mps 760 mmHg 66%
    16:00 +25°C° 0.2 mm 3 mps 760 mmHg 73%
    17:00 +24°C° 0.2 mm 3 mps 759 mmHg 79%
    18:00 +22°C° 0.2 mm 3 mps 759 mmHg 86%
    19:00 +22°C° 0.2 mm 3 mps 759 mmHg 86%
    20:00 +21°C° 0.2 mm 3 mps 758 mmHg 86%
    21:00 +21°C° 0.2 mm 3 mps 758 mmHg 86%
    22:00 +21°C° 0.6 mm 3 mps 758 mmHg 84%
    23:00 +21°C° 0.6 mm 4 mps 757 mmHg 82%

    29 August, Thursday

    Time Temperature Precipitation Wind Pressure Humidity
    00:00 +21°C° 0.6 mm 4 mps 757 mmHg 81%
    01:00 +21°C° 0.4 mm 5 mps 757 mmHg 82%
    02:00 +21°C° 0.4 mm 6 mps 756 mmHg 84%
    03:00 +21°C° 0.4 mm 7 mps 756 mmHg 85%
    04:00 +21°C° 0.6 mm 7 mps 755 mmHg 85%
    05:00 +21°C° 0.6 mm 8 mps 755 mmHg 85%
    06:00 +21°C° 0.6 mm 8 mps 755 mmHg 86%
    07:00 +21°C° 0.8 mm 7 mps 755 mmHg 87%
    08:00 +21°C° 0.8 mm 7 mps 755 mmHg 88%
    09:00 +21°C° 0.8 mm 7 mps 755 mmHg 89%
    10:00 +21°C° 1.3 mm 6 mps 755 mmHg 89%
    11:00 +21°C° 1.3 mm 6 mps 755 mmHg 89%
    12:00 +21°C° 1.3 mm 6 mps 755 mmHg 90%
    13:00 +20°C° 1.3 mm 6 mps 755 mmHg 92%
    14:00 +20°C° 1.3 mm 5 mps 755 mmHg 94%
    15:00 +19°C° 1.3 mm 5 mps 754 mmHg 96%
    16:00 +19°C° 1.5 mm 5 mps 755 mmHg 96%
    17:00 +19°C° 1.5 mm 5 mps 755 mmHg 96%
    18:00 +17°C° 1.5 mm 5 mps 755 mmHg 96%
    19:00 +18°C° 0.3 mm 4 mps 755 mmHg 96%
    20:00 +17°C° 0.3 mm 4 mps 756 mmHg 96%
    21:00 +16°C° 0.3 mm 3 mps 756 mmHg 97%
    22:00 +15°C° 0.2 mm 4 mps 756 mmHg 97%
    23:00 +15°C° 0.2 mm 5 mps 757 mmHg 97%

    30 August, Friday

    Time Temperature Precipitation Wind Pressure Humidity
    00:00 +14°C° 0.2 mm 5 mps 757 mmHg 97%
    01:00 +14°C° 0.1 mm 5 mps 757 mmHg 95%
    02:00 +13°C° 0.1 mm 5 mps 757 mmHg 94%
    03:00 +11°C° 0.1 mm 6 mps 757 mmHg 92%
    04:00 +13°C° 0.2 mm 6 mps 757 mmHg 92%
    05:00 +13°C° 0.2 mm 6 mps 758 mmHg 92%
    06:00 +14°C° 0.2 mm 7 mps 758 mmHg 91%
    07:00 +14°C° 0.6 mm 7 mps 758 mmHg 91%
    08:00 +15°C° 0.6 mm 7 mps 758 mmHg 90%
    09:00 +15°C° 0.6 mm 7 mps 758 mmHg 90%
    10:00 +15°C° 0.5 mm 7 mps 758 mmHg 88%
    11:00 +16°C° 0.5 mm 8 mps 758 mmHg 86%
    12:00 +16°C° 0.5 mm 8 mps 758 mmHg 83%
    13:00 +16°C° 0.3 mm 8 mps 758 mmHg 83%
    14:00 +16°C° 0.3 mm 8 mps 758 mmHg 82%
    15:00 +16°C° 0.3 mm 8 mps 758 mmHg 81%
    16:00 +15°C° 0.2 mm 8 mps 758 mmHg 84%
    17:00 +13°C° 0.2 mm 8 mps 758 mmHg 86%
    18:00 +14°C° 0.2 mm 7 mps 758 mmHg 88%
    19:00 +12°C° 0.1 mm 7 mps 759 mmHg 89%
    20:00 +11°C° 0.1 mm 7 mps 759 mmHg 91%
    21:00 +11°C° 0.1 mm 6 mps 759 mmHg 92%
    22:00 +11°C° 0.2 mm 6 mps 759 mmHg 92%
    23:00 +13°C° 0.2 mm 6 mps 759 mmHg 93%
    Show more